Location: Montichiari
(45.4167°N, 10.3833°E)
Time: 16:17:36
(UTC+00:00)

Daily predictions for brighter satellites

Satellite Brightness Start Highest point End
(mag) Time Altitude Azimuth Time Altitude Azimuth Time Altitude Azimuth
Cosmos 1633 2.5 16:00:57 10° N 16:04:33 79° E 16:08:08 10° SSE
ATLAS CENTAUR R/B 3.9 16:03:37 10° WNW 16:06:32 16° NNW 16:09:21 10° N
SL-16 R/B 4.1 16:02:17 10° N 16:07:43 33° WNW 16:13:08 10° SW
Cosmos 1536 2.9 16:03:41 10° N 16:07:43 59° E 16:11:44 10° SSE
PAYLOAD A 3.9 16:05:05 10° SSE 16:09:48 62° ENE 16:14:44 10° N
Meteor 1-27 Rocket 3.9 16:05:34 10° S 16:11:26 88° W 16:17:13 10° N
SPOT 3 Rocket 3.7 16:09:42 10° SE 16:14:42 50° ENE 16:19:42 10° N
ATLAS 2AS CENTAUR R/B 3.1 16:09:57 10° NW 16:18:01 60° NE 16:25:37 10° SE
CORIOLIS 4.4 16:14:47 10° SE 16:19:58 49° ENE 16:25:09 10° N
Cosmos 2154 Rocket 4.3 16:16:36 10° NNW 16:22:48 74° W 16:29:01 10° S
Cosmos 1812 4.0 16:21:20 10° SE 16:24:15 21° E 16:27:11 10° NE
MOS 1 4.3 16:23:37 10° SSE 16:29:14 71° ENE 16:34:53 10° N
Cosmos 372 Rocket 4.0 16:24:02 10° SSW 16:29:16 74° ESE 16:34:31 10° NNE
Abrixas 3.0 16:26:34 10° WNW 16:29:25 43° N 16:31:41 15° ENE
USA 32 4.3 16:24:36 10° SSE 16:29:34 46° E 16:34:32 10° NNE
Cosmos 2278 Rocket 3.3 16:26:59 10° SSE 16:31:26 24° ESE 16:35:28 12° NE
IDEFIX/ARIANE 42P 2.5 16:27:19 10° SSE 16:32:28 67° ENE 16:37:37 10° N
COSMOS 2406 3.4 16:27:09 10° NNW 16:32:53 79° WSW 16:38:37 10° SSE
OTV 4 3.3 16:31:38 10° SW 16:33:16 14° SSW 16:34:55 10° SSE
APEX 4.4 16:28:16 10° SSW 16:34:54 79° WNW 16:40:06 10° NNE
CZ-4 R/B 1.6 16:34:36 10° SSE 16:38:48 83° WSW 16:42:59 10° NNW
SJ-12 3.9 16:35:04 10° SSE 16:39:09 84° ENE 16:43:18 10° NNW
Meteor 1-5 Rocket 4.2 16:37:54 10° NNW 16:43:19 87° W 16:48:52 10° S
Okean 3 4.2 16:40:42 10° SSW 16:44:54 56° W 16:49:08 10° N
Cosmos 494 Rocket 4.1 16:40:13 10° NNW 16:45:21 54° ENE 16:50:30 10° SE
Cosmos 1125 Rocket 4.2 16:41:35 10° SW 16:46:48 56° WNW 16:52:03 10° NNE
Cosmos 1975 3.4 16:45:44 10° N 16:49:30 34° ENE 16:53:13 10° SE
COSMOS 2487 3.9 16:47:00 10° N 16:49:23 19° NE 16:49:23 19° NE
COSMO-SKYMED 1 3.4 16:46:58 13° NE 16:50:16 30° E 16:54:05 10° SSE
Thor Agena Rocket 3.5 16:45:07 10° NNE 16:50:20 81° ESE 16:55:35 10° SSW
Cosmos 1544 Rocket 3.5 16:45:52 10° N 16:50:20 72° E 16:54:48 10° SSE
ASTRO F (AKARI) 4.5 16:51:05 16° NNE 16:53:22 46° E 16:56:24 10° S
Cosmos 2082 Rocket 3.1 16:49:05 10° N 16:53:53 27° NE 16:57:15 16° E
Cosmos 1975 Rocket 3.5 16:51:32 10° SSW 16:55:48 62° W 17:00:06 10° N
Cosmos 1833 Rocket 3.6 16:53:36 10° N 16:58:17 26° NE 17:00:29 20° E
SL-8 Rocket 4.1 16:53:43 10° N 16:59:55 81° W 17:06:03 10° S
BREEZE-M DEB (TANK) 1.4 16:59:38 10° WSW 17:01:47 71° NNW 17:02:26 40° NE
Cosmos 2251 Rocket 3.5 16:58:16 10° NNW 17:03:41 87° ENE 17:09:00 10° SSE
Cosmos 2366 rocket 4.0 17:04:02 10° N 17:10:27 89° E 17:16:46 10° S
CZ-3B DEB 2.3 17:07:28 10° SW 17:11:20 68° SE 17:17:31 21° ENE
Cosmos 1536 Rocket 3.5 17:07:55 10° S 17:12:18 63° E 17:16:37 11° NNE
Cosmos 2218 Rocket 4.2 17:06:59 10° N 17:13:19 77° W 17:19:31 10° S
Genesis I 3.5 17:12:02 10° NNW 17:15:49 43° NE 17:16:36 38° E
BREEZE M DEB (TANK) 3.0 17:14:02 10° WNW 17:17:10 59° NNE 17:21:01 25° E
Cosmos 1484 Rocket 2.5 17:13:33 10° SSE 17:17:19 80° ENE 17:21:04 10° N
YAOGAN 1 3.8 17:15:27 10° S 17:19:34 43° W 17:23:43 10° NNW
Cosmos 2263 Rocket 4.3 17:15:44 10° W 17:19:50 20° NW 17:23:59 10° N
ISS -3.2 17:17:22 10° WSW 17:20:40 71° NNW 17:21:18 52° NE
CZ-2C R/B 3.7 17:17:06 10° S 17:21:49 43° W 17:26:42 10° NNW
Cosmos 1238 Rocket 2.6 17:20:29 10° SSW 17:23:23 58° W 17:25:10 21° N
Timation 2 Rocket 4.3 17:17:43 10° NNW 17:24:22 54° NE 17:31:06 10° SE
Meteor 1-18 Rocket 4.3 17:21:35 10° SSW 17:27:13 84° W 17:33:00 10° N
SL-24 DEB 4.3 17:25:15 10° N 17:30:02 83° W 17:34:45 10° S
Cosmos 1809 Rocket 4.3 17:24:30 10° N 17:30:42 75° E 17:36:49 10° SSE
Cosmos 1500 3.1 17:31:46 10° N 17:35:36 88° WSW 17:39:26 10° S
SKYMED 2 3.5 17:35:36 21° NNE 17:38:30 86° W 17:42:50 10° SSW
GEOS 3 Rocket 3.7 17:33:40 10° SSE 17:38:47 75° SW 17:43:55 10° NW
Meteor 1-28 Rocket 3.7 17:40:13 45° SSE 17:40:13 45° SSE 17:43:07 10° S
Cosmos 1455 Rocket 4.3 17:35:42 10° NNW 17:39:53 43° W 17:44:04 10° SSW
Okean 1-7 Rocket 4.2 17:36:08 10° SSE 17:39:26 39° SE 17:39:26 39° SE
USA 234 3.8 17:38:57 25° NE 17:42:40 51° NNW 17:48:55 10° W
Cosmos 1844 Rocket 3.6 17:39:50 10° SW 17:45:10 44° WNW 17:49:41 14° NNE
Okean 1 3.8 17:41:30 10° SSW 17:45:31 62° W 17:47:58 22° N
Cosmos 1821 Rocket 3.9 17:39:42 10° N 17:45:41 54° ENE 17:51:38 10° SSE
NOSS 3-4 (A) 4.0 17:47:00 10° NNW 17:53:36 46° NE 17:54:38 43° ENE
NOSS 3-4 (C) 4.0 17:47:06 10° NNW 17:53:43 45° NE 17:54:42 43° ENE
BREEZE-M DEB (TANK) 4.1 17:53:00 10° WNW 17:58:28 45° NNW 17:58:28 45° NNW
Cosmos 2297 3.6 17:53:47 10° S 17:59:18 59° ESE 17:59:21 59° ESE
NOSS 3-3 (A) 4.0 17:55:54 10° SW 18:02:09 88° NW 18:04:28 44° NE
NOSS 3-3 (C) 4.0 17:56:00 10° SW 18:02:15 88° NW 18:04:32 44° NE
Cosmos 1346 Rocket 3.3 18:00:46 10° SSW 18:04:27 57° W 18:04:27 57° W
SL-8 R/B 3.8 18:02:38 10° WSW 18:06:59 66° SSW 18:06:59 66° SSW
ATLAS 2AS CENTAUR R/B 4.2 18:01:29 10° NW 18:08:48 40° WSW 18:15:41 10° S
Nadezhda 3 Rocket 4.1 18:03:23 10° SSW 18:09:34 76° W 18:15:52 10° N
Cosmos 2278 Rocket 2.8 18:09:36 10° SW 18:15:08 55° WNW 18:17:21 34° N
Meteor 1-19 Rocket 4.2 18:09:51 10° S 18:15:38 88° E 18:16:46 60° NNE
FengYun 1-2 T 4.5 18:17:22 56° N 18:17:22 56° N 18:21:51 10° N
COSMO-SKYMED 1 4.4 18:24:11 19° NNW 18:26:22 28° WNW 18:30:04 10° SW
Cosmos 2082 Rocket 2.7 18:32:47 10° NW 18:38:18 55° WSW 18:39:14 49° SW
Cosmos 1833 Rocket 3.1 18:37:04 10° NNW 18:42:17 58° W 18:42:17 58° W
FALCON 9 R/B 3.8 18:37:40 10° WSW 18:51:54 39° SSW 18:52:36 38° S
CZ-3B DEB 4.0 19:41:00 10° WNW 19:46:19 49° NNW 19:46:19 49° NNW
